Location: Napier
(39.4830°S, 176.9170°E)
Time: 21:57:58
(UTC+12:00)

Cosmos 1633 - Pass Details

Date: 24 January 2019
Orbit: 467 x 483 km, 82.5° (Epoch: 22 April)

Event Time Altitude Azimuth Distance (km) Brightness Sun altitude
Rises 23:15:21 0° 202° (SSW) 2,550 7.6 -24.0°
Reaches altitude 10° 23:17:44 10° 216° (SW) 1,664 6.3 -24.3°
Maximum altitude 23:20:40 23° 270° (W) 1,054 4.5 -24.6°
Enters shadow 23:21:04 23° 281° (W) 1,068 4.4 -24.6°
